When you browse on this site, cookies collect data to enhance your experience and personalize the content and advertising you see.
Visit our Privacy Policy to learn more. By continuing to use the site, you agree to this use of cookies and data.
  • In Romania
  • List of Countries
  • For 7 days
  • Water Temperature
  • Weather Map
  • Weather Widgets
  • user-avatar
    Login

    Hourly Weather Neuquén

    Today, 9 December, Monday

    Time Temperature Precipitation Wind Pressure Humidity
    00:00 +25°C° 0 mm 5 mps 729 mmHg 24%
    01:00 +22°C° 0 mm 4 mps 729 mmHg 28%
    02:00 +21°C° 0 mm 4 mps 729 mmHg 30%
    03:00 +20°C° 0 mm 4 mps 729 mmHg 32%
    04:00 +19°C° 0 mm 4 mps 729 mmHg 34%
    05:00 +22°C° 0 mm 5 mps 729 mmHg 28%
    06:00 +26°C° 0 mm 5 mps 730 mmHg 22%
    07:00 +29°C° 0 mm 6 mps 730 mmHg 16%
    08:00 +30°C° 0 mm 6 mps 730 mmHg 14%
    09:00 +33°C° 0 mm 6 mps 729 mmHg 12%
    10:00 +35°C° 0 mm 6 mps 729 mmHg 9%
    11:00 +36°C° 0 mm 6 mps 729 mmHg 8%
    12:00 +38°C° 0 mm 6 mps 728 mmHg 7%
    13:00 +39°C° 0 mm 6 mps 728 mmHg 5%
    14:00 +40°C° 0 mm 8 mps 727 mmHg 5%
    15:00 +40°C° 0 mm 9 mps 727 mmHg 5%
    16:00 +40°C° 0 mm 10 mps 726 mmHg 5%
    17:00 +37°C° 0 mm 11 mps 727 mmHg 7%
    18:00 +34°C° 0 mm 11 mps 727 mmHg 8%
    19:00 +31°C° 0 mm 11 mps 728 mmHg 9%
    20:00 +29°C° 0 mm 11 mps 728 mmHg 13%
    21:00 +27°C° 0 mm 11 mps 729 mmHg 16%
    22:00 +26°C° 0 mm 10 mps 729 mmHg 19%
    23:00 +24°C° 0 mm 9 mps 729 mmHg 21%

    Tomorrow, 10 December, Tuesday

    Time Temperature Precipitation Wind Pressure Humidity
    00:00 +23°C° 0 mm 8 mps 729 mmHg 22%
    01:00 +22°C° 0 mm 7 mps 729 mmHg 24%
    02:00 +21°C° 0 mm 6 mps 729 mmHg 27%
    03:00 +20°C° 0 mm 5 mps 730 mmHg 30%
    04:00 +19°C° 0 mm 4 mps 730 mmHg 33%
    05:00 +21°C° 0 mm 4 mps 730 mmHg 30%
    06:00 +23°C° 0 mm 4 mps 731 mmHg 27%
    07:00 +26°C° 0 mm 4 mps 731 mmHg 24%
    08:00 +28°C° 0 mm 4 mps 731 mmHg 20%
    09:00 +29°C° 0 mm 4 mps 731 mmHg 17%
    10:00 +32°C° 0 mm 4 mps 731 mmHg 14%
    11:00 +33°C° 0 mm 5 mps 730 mmHg 12%
    12:00 +34°C° 0 mm 5 mps 729 mmHg 11%
    13:00 +35°C° 0 mm 6 mps 729 mmHg 9%
    14:00 +35°C° 0 mm 5 mps 728 mmHg 8%
    15:00 +35°C° 0 mm 5 mps 727 mmHg 7%
    16:00 +36°C° 0 mm 4 mps 727 mmHg 7%
    17:00 +34°C° 0 mm 6 mps 727 mmHg 8%
    18:00 +32°C° 0 mm 8 mps 727 mmHg 9%
    19:00 +29°C° 0 mm 10 mps 728 mmHg 11%
    20:00 +28°C° 0 mm 10 mps 728 mmHg 14%
    21:00 +26°C° 0 mm 9 mps 729 mmHg 17%
    22:00 +24°C° 0 mm 9 mps 729 mmHg 21%
    23:00 +23°C° 0 mm 9 mps 729 mmHg 23%

    Day after tomorrow, 11 December, Wednesday

    Time Temperature Precipitation Wind Pressure Humidity
    00:00 +22°C° 0 mm 9 mps 729 mmHg 25%
    01:00 +21°C° 0 mm 9 mps 728 mmHg 27%
    02:00 +21°C° 0 mm 9 mps 728 mmHg 26%
    03:00 +21°C° 0 mm 9 mps 728 mmHg 25%
    04:00 +19°C° 0 mm 10 mps 728 mmHg 24%
    05:00 +21°C° 0 mm 10 mps 728 mmHg 23%
    06:00 +22°C° 0 mm 10 mps 729 mmHg 21%
    07:00 +23°C° 0 mm 10 mps 729 mmHg 20%
    08:00 +24°C° 0 mm 10 mps 729 mmHg 20%
    09:00 +27°C° 0 mm 11 mps 729 mmHg 21%
    10:00 +28°C° 0 mm 11 mps 729 mmHg 21%
    11:00 +29°C° 0 mm 12 mps 728 mmHg 20%
    12:00 +31°C° 0 mm 12 mps 728 mmHg 19%
    13:00 +31°C° 0 mm 13 mps 727 mmHg 18%
    14:00 +31°C° 0 mm 14 mps 727 mmHg 16%
    15:00 +29°C° 0 mm 15 mps 727 mmHg 14%
    16:00 +29°C° 0 mm 17 mps 727 mmHg 12%
    17:00 +27°C° 0 mm 15 mps 727 mmHg 13%
    18:00 +24°C° 0 mm 13 mps 728 mmHg 15%
    19:00 +22°C° 0 mm 12 mps 729 mmHg 16%
    20:00 +21°C° 0 mm 11 mps 730 mmHg 19%
    21:00 +18°C° 0 mm 10 mps 731 mmHg 22%
    22:00 +17°C° 0 mm 9 mps 732 mmHg 25%
    23:00 +16°C° 0 mm 8 mps 732 mmHg 29%

    12 December, Thursday

    Time Temperature Precipitation Wind Pressure Humidity
    00:00 +15°C° 0 mm 7 mps 732 mmHg 32%
    01:00 +14°C° 0 mm 6 mps 732 mmHg 36%
    02:00 +13°C° 0 mm 6 mps 733 mmHg 37%
    03:00 +12°C° 0 mm 5 mps 733 mmHg 38%
    04:00 +12°C° 0 mm 5 mps 733 mmHg 40%
    05:00 +13°C° 0 mm 6 mps 734 mmHg 34%
    06:00 +15°C° 0 mm 7 mps 734 mmHg 29%
    07:00 +16°C° 0 mm 8 mps 734 mmHg 24%
    08:00 +18°C° 0 mm 7 mps 734 mmHg 21%
    09:00 +20°C° 0 mm 6 mps 734 mmHg 18%
    10:00 +21°C° 0 mm 6 mps 734 mmHg 16%
    11:00 +22°C° 0 mm 5 mps 734 mmHg 14%
    12:00 +23°C° 0 mm 5 mps 733 mmHg 13%
    13:00 +26°C° 0 mm 5 mps 733 mmHg 12%
    14:00 +26°C° 0 mm 5 mps 732 mmHg 11%
    15:00 +26°C° 0 mm 5 mps 731 mmHg 11%
    16:00 +26°C° 0 mm 5 mps 731 mmHg 10%
    17:00 +23°C° 0 mm 4 mps 731 mmHg 12%
    18:00 +21°C° 0 mm 3 mps 731 mmHg 14%
    19:00 +19°C° 0 mm 1 mps 731 mmHg 16%
    20:00 +18°C° 0 mm 2 mps 731 mmHg 16%
    21:00 +18°C° 0 mm 2 mps 731 mmHg 16%
    22:00 +18°C° 0 mm 3 mps 732 mmHg 16%
    23:00 +17°C° 0 mm 4 mps 732 mmHg 21%

    13 December, Friday

    Time Temperature Precipitation Wind Pressure Humidity
    00:00 +16°C° 0 mm 5 mps 731 mmHg 25%
    01:00 +16°C° 0 mm 6 mps 731 mmHg 30%
    02:00 +15°C° 0 mm 5 mps 731 mmHg 33%
    03:00 +14°C° 0 mm 5 mps 731 mmHg 35%
    04:00 +13°C° 0 mm 5 mps 730 mmHg 38%
    05:00 +15°C° 0 mm 5 mps 731 mmHg 33%
    06:00 +17°C° 0 mm 6 mps 731 mmHg 28%
    07:00 +21°C° 0 mm 6 mps 731 mmHg 23%
    08:00 +22°C° 0 mm 6 mps 731 mmHg 21%
    09:00 +23°C° 0 mm 6 mps 731 mmHg 18%
    10:00 +26°C° 0 mm 7 mps 730 mmHg 16%
    11:00 +27°C° 0 mm 6 mps 730 mmHg 14%
    12:00 +28°C° 0 mm 6 mps 729 mmHg 12%
    13:00 +29°C° 0 mm 6 mps 729 mmHg 10%
    14:00 +29°C° 0 mm 6 mps 728 mmHg 10%
    15:00 +30°C° 0 mm 7 mps 728 mmHg 9%
    16:00 +31°C° 0 mm 8 mps 728 mmHg 9%
    17:00 +28°C° 0 mm 8 mps 728 mmHg 11%
    18:00 +27°C° 0 mm 8 mps 729 mmHg 14%
    19:00 +24°C° 0 mm 8 mps 729 mmHg 16%
    20:00 +23°C° 0 mm 8 mps 730 mmHg 19%
    21:00 +21°C° 0 mm 7 mps 730 mmHg 21%
    22:00 +20°C° 0 mm 7 mps 731 mmHg 24%
    23:00 +18°C° 0 mm 7 mps 731 mmHg 28%

    14 December, Saturday

    Time Temperature Precipitation Wind Pressure Humidity
    00:00 +16°C° 0 mm 6 mps 731 mmHg 33%
    01:00 +15°C° 0 mm 5 mps 731 mmHg 37%
    02:00 +15°C° 0 mm 5 mps 731 mmHg 39%
    03:00 +15°C° 0 mm 5 mps 731 mmHg 41%
    04:00 +15°C° 0 mm 5 mps 732 mmHg 43%
    05:00 +16°C° 0 mm 5 mps 732 mmHg 38%
    06:00 +19°C° 0 mm 6 mps 733 mmHg 33%
    07:00 +20°C° 0 mm 7 mps 733 mmHg 28%
    08:00 +22°C° 0 mm 6 mps 733 mmHg 25%
    09:00 +23°C° 0 mm 6 mps 733 mmHg 22%
    10:00 +26°C° 0 mm 5 mps 733 mmHg 18%
    11:00 +27°C° 0 mm 6 mps 733 mmHg 17%
    12:00 +28°C° 0 mm 6 mps 732 mmHg 16%
    13:00 +29°C° 0 mm 6 mps 732 mmHg 14%
    14:00 +29°C° 0 mm 6 mps 732 mmHg 14%
    15:00 +30°C° 0 mm 6 mps 731 mmHg 15%
    16:00 +30°C° 0 mm 6 mps 731 mmHg 15%
    17:00 +28°C° 0 mm 5 mps 732 mmHg 17%
    18:00 +26°C° 0 mm 4 mps 732 mmHg 19%
    19:00 +25°C° 0 mm 3 mps 732 mmHg 21%
    20:00 +24°C° 0 mm 3 mps 733 mmHg 23%
    21:00 +22°C° 0 mm 3 mps 733 mmHg 25%
    22:00 +22°C° 0 mm 3 mps 734 mmHg 27%
    23:00 +21°C° 0 mm 3 mps 734 mmHg 29%
    Show more